Orbital Elements at Epoch 2459000.5 (2020-May-31.0) TDB
Reference: JPL 11 (heliocentric ecliptic J2000)
Element | Value | Uncertainty (1-sigma) | Units |
e | .1420188568838587 | 3.599e-08 | |
a | 2.386299141678442 | 1.6397e-08 | au |
q | 2.047399665394336 | 9.0692e-08 | au |
i | 6.404133632746264 | 6.1431e-06 | deg |
node | 171.1438746246875 | 3.6454e-05 | deg |
peri | 270.3023446991491 | 4.4028e-05 | deg |
M | 11.29296667414209 | 2.2243e-05 | deg |
tp | 2458958.263171504900 (2020-Apr-18.76317150) | 8.3223e-05 | TDB |
period | 1346.43612232133 3.69 | 1.3878e-05 3.8e-08 | d yr |
n | .2673725058559335 | 2.7558e-09 | deg/d |
Q | 2.725198617962548 | 1.8726e-08 | au |
|
| | Orbit Determination Parameters
Additional Information
|